User: anonymous   Login
Location: Caltech
(34.1382°N, 118.1253°W)
Time: 06:32:35
(UTC-07:00)
Language:

Gbstr 26 Del rocket - Orbit

View from above orbital plane
View from above orbital plane
View from above satellite
View from above satellite

Ground track
Ground track

The orbit data is extracted from the following two-line orbital elements,

1 25876U 99041E   15209.81884736 -.00000014  00000-0  38256-4 0  9997
2 25876 051.7645 155.4765 0535044 179.6842 180.4525 14.03363115817793
Epoch (UTC): 28 July 2015 19:39:08
Eccentricity: 0.0535044
inclination: 51.7645°
perigee height: 494 km
apogee height: 1270 km
right ascension of ascending node: 155.4765°
argument of perigee: 179.6842°
revolutions per day: 14.03363115
mean anomaly at epoch: 180.4525°
orbit number at epoch: 81779

The dashed part of the orbit path shows where the satellite is in the earth's shadow,  

DLR